Location: Kalberh�ni
(46.4610°N, 7.2453°E)
Time: 05:06:15
(UTC+00:00)

Cosmos 2333 Rocket - Pass Details

Date: 26 October 2021
Orbit: 837 x 865 km, 70.8° (Epoch: 05 December)

Event Time Altitude Azimuth Distance (km) Brightness Sun altitude
Exits shadow 04:45:19 - 325° (NW) 2,999 4.7 -14.1°
Reaches altitude 10° 04:46:40 10° 321° (NW) 2,509 4.3 -13.9°
Maximum altitude 04:52:04 42° 252° (WSW) 1,212 2.6 -13.0°
Drops below altitude 10° 04:57:26 10° 183° (S) 2,498 4.7 -12.0°
Sets 05:00:00 0° 177° (S) 3,431 5.5 -11.6°
